Location: *
(2.5500°S, 65.9667°W)
Time: 05:38:35
(UTC+00:00)

Explorer 7 - Pass Details

Date: 20 April 2024
Orbit: 467 x 625 km, 50.3° (Epoch: 26 May)

Event Time Altitude Azimuth Distance (km) Brightness Sun altitude
Rises 01:06:33 0° 308° (NW) 2,649 11.0 -40.6°
Enters shadow 01:07:27 - 305° (NW) 2,299 10.7 -40.8°
Reaches altitude 10° 01:08:58 10° 298° (WNW) 1,734 - -41.1°
Maximum altitude 01:12:30 33° 233° (SW) 861 - -42.0°
Drops below altitude 10° 01:15:55 10° 168° (SSE) 1,667 - -42.8°
Sets 01:18:12 0° 158° (SSE) 2,530 - -43.4°
